Volver al catálogo

STARLINK-37359

ActivoComunicacionesVLEO
NORAD 69188·PAYLOAD·🇺🇸 United States

Lanzado May 25, 2026 desde Cape Canaveral Space Force Station

Loading…

Próximos Pases (próximas 24 horas)

TLE

ActualizadoSource: CelesTrak SupGP

Época: Sep 14, 2026, 16:20 UTC

1 69188C 26114G   26257.68104167  .00032992  00000+0  97466-3 0  2577
2 69188  53.1559 141.1298 0001238  99.3641 130.3393 15.34377684    15

Sigue STARLINK-37359 en tiempo real con AllMySat

Download on the App Store